Location: Burgwalden
(48.2830°N, 10.7576°E)
Time: 02:18:32
(UTC+00:00)

BREEZE-M DEB - Pass Details

Date: 26 September 2023
Orbit: 330 x 15705 km, 49.4° (Epoch: 04 December)

Event Time Altitude Azimuth Distance (km) Brightness Sun altitude
Exits shadow 03:28:30 77° 234° (SW) 346 1.6 -17.2°
Maximum altitude 03:28:38 85° 168° (SSE) 337 1.6 -17.2°
Drops below altitude 10° 03:31:05 10° 77° (ENE) 1,375 6.2 -16.8°
Sets 03:33:23 0° 77° (ENE) 2,588 8.1 -16.4°
